Time,TemperatureF,DewpointF,PressureIn,WindDirection,WindDirectionDegrees,WindSpeedMPH,WindSpeedGustMPH,Humidity,HourlyPrecipIn,Conditions,Clouds,dailyrainin,SoftwareType,DateUTC
2013-05-07 00:00:00,52.5,37.7,30.04,East,91,1.0,1.0,57,0.00,,,0.00,Wunderground v.1.15,2013-05-07 05:00:00,
2013-05-07 00:10:00,52.4,37.6,30.04,ENE,77,0.0,1.0,57,0.00,,,0.00,Wunderground v.1.15,2013-05-07 05:10:00,
2013-05-07 00:15:00,52.4,38.0,30.04,East,88,1.0,1.0,58,0.00,,,0.00,Wunderground v.1.15,2013-05-07 05:15:00,
2013-05-07 00:25:00,52.6,37.8,30.04,East,84,1.0,1.0,57,0.00,,,0.00,Wunderground v.1.15,2013-05-07 05:25:00,
2013-05-07 00:35:00,52.9,38.1,30.04,East,93,1.0,1.0,57,0.00,,,0.00,Wunderground v.1.15,2013-05-07 05:35:00,
2013-05-07 00:45:00,53.0,37.7,30.04,ESE,114,1.0,2.0,56,0.00,,,0.00,Wunderground v.1.15,2013-05-07 05:45:00,
2013-05-07 00:50:00,53.2,37.9,30.04,ESE,113,1.0,1.0,56,0.00,,,0.00,Wunderground v.1.15,2013-05-07 05:50:00,
2013-05-07 01:00:00,53.5,38.2,30.04,ESE,105,1.0,3.0,56,0.00,,,0.00,Wunderground v.1.15,2013-05-07 06:00:00,
2013-05-07 01:05:00,53.5,37.7,30.04,ESE,120,2.0,4.0,55,0.00,,,0.00,Wunderground v.1.15,2013-05-07 06:05:00,
2013-05-07 01:15:00,53.3,38.4,30.04,ESE,118,1.0,4.0,57,0.00,,,0.00,Wunderground v.1.15,2013-05-07 06:15:00,
2013-05-07 01:25:00,52.8,38.4,30.05,SE,127,1.0,4.0,58,0.00,,,0.00,Wunderground v.1.15,2013-05-07 06:25:00,
2013-05-07 01:35:00,52.5,38.6,30.04,ESE,114,0.0,4.0,59,0.00,,,0.00,Wunderground v.1.15,2013-05-07 06:35:00,
2013-05-07 01:45:00,52.2,38.7,30.04,ESE,122,0.0,4.0,60,0.00,,,0.00,Wunderground v.1.15,2013-05-07 06:45:00,
2013-05-07 01:50:00,52.0,38.5,30.04,ESE,110,0.0,4.0,60,0.00,,,0.00,Wunderground v.1.15,2013-05-07 06:50:00,
2013-05-07 02:00:00,52.0,38.5,30.04,East,98,0.0,4.0,60,0.00,,,0.00,Wunderground v.1.15,2013-05-07 07:00:00,
2013-05-07 02:05:00,52.1,38.6,30.04,East,100,0.0,4.0,60,0.00,,,0.00,Wunderground v.1.15,2013-05-07 07:05:00,
2013-05-07 02:15:00,52.4,38.5,30.05,East,96,1.0,4.0,59,0.00,,,0.00,Wunderground v.1.15,2013-05-07 07:15:00,
2013-05-07 02:25:00,52.3,38.8,30.05,ENE,77,0.0,4.0,60,0.00,,,0.00,Wunderground v.1.15,2013-05-07 07:25:00,
2013-05-07 02:35:00,51.8,39.6,30.04,East,82,0.0,4.0,63,0.00,,,0.00,Wunderground v.1.15,2013-05-07 07:35:00,
2013-05-07 02:45:00,51.6,39.0,30.04,ESE,105,0.0,4.0,62,0.00,,,0.00,Wunderground v.1.15,2013-05-07 07:45:00,
2013-05-07 02:50:00,51.6,39.0,30.04,ESE,106,0.0,4.0,62,0.00,,,0.00,Wunderground v.1.15,2013-05-07 07:50:00,
2013-05-07 03:00:00,52.2,38.7,30.03,ESE,103,1.0,1.0,60,0.00,,,0.00,Wunderground v.1.15,2013-05-07 08:00:00,
2013-05-07 03:05:00,52.4,38.9,30.03,East,98,1.0,4.0,60,0.00,,,0.00,Wunderground v.1.15,2013-05-07 08:05:00,
2013-05-07 03:15:00,52.1,39.5,30.03,ESE,113,1.0,4.0,62,0.00,,,0.00,Wunderground v.1.15,2013-05-07 08:15:00,
2013-05-07 03:25:00,52.2,39.6,30.03,SE,138,2.0,4.0,62,0.00,,,0.00,Wunderground v.1.15,2013-05-07 08:25:00,
2013-05-07 03:35:00,52.0,39.8,30.03,ESE,115,1.0,3.0,63,0.00,,,0.00,Wunderground v.1.15,2013-05-07 08:35:00,
2013-05-07 03:45:00,51.9,39.7,30.03,East,94,2.0,4.0,63,0.00,,,0.00,Wunderground v.1.15,2013-05-07 08:45:00,
2013-05-07 03:55:00,52.1,40.3,30.02,SE,135,2.0,4.0,64,0.00,,,0.00,Wunderground v.1.15,2013-05-07 08:55:00,
2013-05-07 04:00:00,52.0,40.6,30.02,SE,146,1.0,4.0,65,0.00,,,0.00,Wunderground v.1.15,2013-05-07 09:00:00,
2013-05-07 04:10:00,51.8,41.2,30.02,East,89,1.0,4.0,67,0.00,,,0.00,Wunderground v.1.15,2013-05-07 09:10:00,
2013-05-07 04:15:00,51.6,41.4,30.02,SE,138,1.0,4.0,68,0.00,,,0.00,Wunderground v.1.15,2013-05-07 09:15:00,
2013-05-07 04:25:00,51.1,41.3,30.03,East,98,1.0,4.0,69,0.00,,,0.00,Wunderground v.1.15,2013-05-07 09:25:00,
2013-05-07 04:35:00,50.8,41.4,30.02,East,98,0.0,4.0,70,0.00,,,0.00,Wunderground v.1.15,2013-05-07 09:35:00,
2013-05-07 04:45:00,50.6,41.9,30.02,ESE,110,0.0,4.0,72,0.00,,,0.00,Wunderground v.1.15,2013-05-07 09:45:00,
2013-05-07 04:55:00,50.2,42.2,30.02,ESE,110,0.0,4.0,74,0.00,,,0.00,Wunderground v.1.15,2013-05-07 09:55:00,
2013-05-07 05:00:00,49.9,42.3,30.02,ESE,109,0.0,4.0,75,0.00,,,0.00,Wunderground v.1.15,2013-05-07 10:00:00,
2013-05-07 05:10:00,49.7,42.8,30.02,East,98,0.0,4.0,77,0.00,,,0.00,Wunderground v.1.15,2013-05-07 10:10:00,
2013-05-07 05:15:00,49.6,42.7,30.02,ESE,117,0.0,4.0,77,0.00,,,0.00,Wunderground v.1.15,2013-05-07 10:15:00,
2013-05-07 05:25:00,49.2,42.6,30.02,ESE,117,0.0,4.0,78,0.00,,,0.00,Wunderground v.1.15,2013-05-07 10:25:00,
2013-05-07 05:35:00,49.3,43.1,30.02,ESE,119,0.0,4.0,79,0.00,,,0.00,Wunderground v.1.15,2013-05-07 10:35:00,
2013-05-07 05:45:00,49.2,43.3,30.02,SE,124,0.0,4.0,80,0.00,,,0.00,Wunderground v.1.15,2013-05-07 10:45:00,
2013-05-07 05:55:00,49.0,43.1,30.02,ESE,115,0.0,4.0,80,0.00,,,0.00,Wunderground v.1.15,2013-05-07 10:55:00,
2013-05-07 06:00:00,49.0,43.4,30.02,ESE,118,0.0,0.0,81,0.00,,,0.00,Wunderground v.1.15,2013-05-07 11:00:00,
2013-05-07 06:10:00,48.9,43.3,30.02,SSE,158,0.0,0.0,81,0.00,,,0.00,Wunderground v.1.15,2013-05-07 11:10:00,
2013-05-07 06:15:00,49.0,43.4,30.02,ESE,115,0.0,0.0,81,0.00,,,0.00,Wunderground v.1.15,2013-05-07 11:15:00,
2013-05-07 06:25:00,48.9,43.3,30.02,ESE,107,0.0,0.0,81,0.00,,,0.00,Wunderground v.1.15,2013-05-07 11:25:00,
2013-05-07 06:35:00,48.9,43.3,30.02,ESE,105,0.0,0.0,81,0.00,,,0.00,Wunderground v.1.15,2013-05-07 11:35:00,
2013-05-07 06:45:00,48.8,43.2,30.02,East,91,0.0,0.0,81,0.00,,,0.00,Wunderground v.1.15,2013-05-07 11:45:00,
2013-05-07 06:55:00,49.3,43.7,30.02,ENE,70,0.0,0.0,81,0.00,,,0.00,Wunderground v.1.15,2013-05-07 11:55:00,
2013-05-07 07:05:00,49.7,44.1,30.02,ENE,78,0.0,1.0,81,0.00,,,0.00,Wunderground v.1.15,2013-05-07 12:05:00,
2013-05-07 07:10:00,50.0,44.4,30.02,SE,128,0.0,1.0,81,0.00,,,0.00,Wunderground v.1.15,2013-05-07 12:10:00,
2013-05-07 07:20:00,50.6,44.7,30.02,East,98,0.0,2.0,80,0.00,,,0.00,Wunderground v.1.15,2013-05-07 12:20:00,
2013-05-07 07:25:00,50.8,44.5,30.02,SE,127,0.0,2.0,79,0.00,,,0.00,Wunderground v.1.15,2013-05-07 12:25:00,
2013-05-07 07:35:00,51.8,45.2,30.02,SE,138,0.0,1.0,78,0.00,,,0.00,Wunderground v.1.15,2013-05-07 12:35:00,
2013-05-07 07:45:00,53.0,46.0,30.02,SSW,204,0.0,2.0,77,0.00,,,0.00,Wunderground v.1.15,2013-05-07 12:45:00,
2013-05-07 07:55:00,54.5,47.1,30.02,SE,146,1.0,1.0,76,0.00,,,0.00,Wunderground v.1.15,2013-05-07 12:55:00,
2013-05-07 08:05:00,56.3,47.8,30.02,SE,124,1.0,1.0,73,0.00,,,0.00,Wunderground v.1.15,2013-05-07 13:05:00,
2013-05-07 08:10:00,57.1,48.2,30.02,SSE,156,0.0,1.0,72,0.00,,,0.00,Wunderground v.1.15,2013-05-07 13:10:00,
2013-05-07 08:20:00,57.6,47.9,30.02,SE,134,0.0,1.0,70,0.00,,,0.00,Wunderground v.1.15,2013-05-07 13:20:00,
2013-05-07 08:25:00,57.6,48.3,30.02,SE,134,0.0,1.0,71,0.00,,,0.00,Wunderground v.1.15,2013-05-07 13:25:00,
2013-05-07 08:35:00,58.0,48.6,30.02,ESE,116,0.0,1.0,71,0.00,,,0.00,Wunderground v.1.15,2013-05-07 13:35:00,
2013-05-07 08:45:00,58.8,48.6,30.02,SSW,211,1.0,1.0,69,0.00,,,0.00,Wunderground v.1.15,2013-05-07 13:45:00,
2013-05-07 08:55:00,59.3,49.1,30.02,SSW,204,2.0,4.0,69,0.00,,,0.00,Wunderground v.1.15,2013-05-07 13:55:00,
2013-05-07 09:05:00,60.3,49.3,30.02,SSW,211,2.0,4.0,67,0.00,,,0.00,Wunderground v.1.15,2013-05-07 14:05:00,
2013-05-07 09:10:00,61.1,50.1,30.01,SSE,156,2.0,2.0,67,0.00,,,0.00,Wunderground v.1.15,2013-05-07 14:10:00,
2013-05-07 09:20:00,62.5,49.7,30.01,WSW,255,4.0,6.0,63,0.00,,,0.00,Wunderground v.1.15,2013-05-07 14:20:00,
2013-05-07 09:25:00,63.1,49.4,30.01,SW,226,5.0,6.0,61,0.00,,,0.00,Wunderground v.1.15,2013-05-07 14:25:00,
2013-05-07 09:35:00,64.2,49.6,30.01,SSW,205,4.0,6.0,59,0.00,,,0.00,Wunderground v.1.15,2013-05-07 14:35:00,
2013-05-07 09:45:00,65.1,50.0,30.00,West,271,4.0,5.0,58,0.00,,,0.00,Wunderground v.1.15,2013-05-07 14:45:00,
2013-05-07 09:55:00,64.7,49.1,30.00,SW,224,5.0,5.0,57,0.00,,,0.00,Wunderground v.1.15,2013-05-07 14:55:00,
2013-05-07 10:05:00,65.5,49.4,30.00,SE,141,4.0,6.0,56,0.00,,,0.00,Wunderground v.1.15,2013-05-07 15:05:00,
2013-05-07 10:10:00,65.7,48.6,30.00,SW,231,5.0,6.0,54,0.00,,,0.00,Wunderground v.1.15,2013-05-07 15:10:00,
2013-05-07 10:20:00,66.3,49.2,29.99,SSW,203,4.0,4.0,54,0.00,,,0.00,Wunderground v.1.15,2013-05-07 15:20:00,
2013-05-07 10:25:00,66.8,48.6,29.99,SSW,205,4.0,4.0,52,0.00,,,0.00,Wunderground v.1.15,2013-05-07 15:25:00,
2013-05-07 10:35:00,66.7,49.5,29.99,SSE,158,5.0,8.0,54,0.00,,,0.00,Wunderground v.1.15,2013-05-07 15:35:00,
2013-05-07 10:45:00,66.8,48.6,29.99,SSW,195,4.0,5.0,52,0.00,,,0.00,Wunderground v.1.15,2013-05-07 15:45:00,
2013-05-07 10:55:00,66.4,48.7,29.99,SSW,204,4.0,6.0,53,0.00,,,0.00,Wunderground v.1.15,2013-05-07 15:55:00,
2013-05-07 11:05:00,66.2,48.6,29.99,SW,231,5.0,5.0,53,0.00,,,0.00,Wunderground v.1.15,2013-05-07 16:05:00,
2013-05-07 11:10:00,66.2,49.1,29.99,South,191,4.0,9.0,54,0.00,,,0.00,Wunderground v.1.15,2013-05-07 16:10:00,
2013-05-07 11:20:00,66.1,48.5,29.99,SW,215,4.0,4.0,53,0.00,,,0.00,Wunderground v.1.15,2013-05-07 16:20:00,
2013-05-07 11:30:00,66.2,49.1,29.99,WNW,283,3.0,4.0,54,0.00,,,0.00,Wunderground v.1.15,2013-05-07 16:30:00,
2013-05-07 11:35:00,65.9,49.8,29.99,SE,141,4.0,6.0,56,0.00,,,0.00,Wunderground v.1.15,2013-05-07 16:35:00,
2013-05-07 11:45:00,65.5,48.9,29.99,South,178,4.0,4.0,55,0.00,,,0.00,Wunderground v.1.15,2013-05-07 16:45:00,
2013-05-07 11:55:00,65.5,49.4,29.99,SE,132,3.0,3.0,56,0.00,,,0.00,Wunderground v.1.15,2013-05-07 16:55:00,
2013-05-07 12:00:00,65.6,49.5,29.99,SE,141,3.0,5.0,56,0.00,,,0.00,Wunderground v.1.15,2013-05-07 17:00:00,
2013-05-07 12:10:00,65.4,49.3,29.99,SE,141,4.0,4.0,56,0.00,,,0.00,Wunderground v.1.15,2013-05-07 17:10:00,
2013-05-07 12:20:00,65.5,49.9,29.99,SSW,212,4.0,4.0,57,0.00,,,0.00,Wunderground v.1.15,2013-05-07 17:20:00,
2013-05-07 12:30:00,65.7,49.6,29.99,SSW,205,4.0,4.0,56,0.00,,,0.00,Wunderground v.1.15,2013-05-07 17:30:00,
2013-05-07 12:35:00,65.7,50.0,29.98,SE,124,4.0,11.0,57,0.00,,,0.00,Wunderground v.1.15,2013-05-07 17:35:00,
2013-05-07 12:45:00,66.3,49.6,29.98,SW,235,3.0,11.0,55,0.00,,,0.00,Wunderground v.1.15,2013-05-07 17:45:00,
2013-05-07 12:55:00,66.9,49.7,29.98,SE,134,4.0,11.0,54,0.00,,,0.00,Wunderground v.1.15,2013-05-07 17:55:00,
2013-05-07 13:05:00,67.3,49.1,29.98,SSE,167,3.0,11.0,52,0.00,,,0.00,Wunderground v.1.15,2013-05-07 18:05:00,
2013-05-07 13:10:00,67.5,49.3,29.97,SW,235,4.0,4.0,52,0.00,,,0.00,Wunderground v.1.15,2013-05-07 18:10:00,
2013-05-07 13:20:00,67.7,48.9,29.97,SSW,204,3.0,3.0,51,0.00,,,0.00,Wunderground v.1.15,2013-05-07 18:20:00,
2013-05-07 13:25:00,67.4,48.6,29.97,SSW,205,3.0,11.0,51,0.00,,,0.00,Wunderground v.1.15,2013-05-07 18:25:00,
2013-05-07 13:35:00,66.7,48.5,29.97,SSW,203,5.0,11.0,52,0.00,,,0.00,Wunderground v.1.15,2013-05-07 18:35:00,
2013-05-07 13:45:00,66.2,49.6,29.97,SSE,154,4.0,11.0,55,0.00,,,0.00,Wunderground v.1.15,2013-05-07 18:45:00,
2013-05-07 13:55:00,65.8,50.1,29.97,South,188,4.0,11.0,57,0.00,,,0.00,Wunderground v.1.15,2013-05-07 18:55:00,
2013-05-07 14:05:00,65.7,50.5,29.97,SW,229,4.0,11.0,58,0.00,,,0.00,Wunderground v.1.15,2013-05-07 19:05:00,
2013-05-07 14:10:00,65.9,50.2,29.97,South,185,3.0,11.0,57,0.00,,,0.00,Wunderground v.1.15,2013-05-07 19:10:00,
2013-05-07 14:20:00,66.0,49.8,29.97,South,169,4.0,4.0,56,0.00,,,0.00,Wunderground v.1.15,2013-05-07 19:20:00,
2013-05-07 14:25:00,65.9,49.8,29.98,WSW,257,4.0,11.0,56,0.00,,,0.00,Wunderground v.1.15,2013-05-07 19:25:00,
2013-05-07 14:35:00,65.6,50.0,29.97,SW,214,4.0,11.0,57,0.00,,,0.00,Wunderground v.1.15,2013-05-07 19:35:00,
2013-05-07 14:45:00,65.0,50.3,29.98,SW,221,5.0,6.0,59,0.00,,,0.00,Wunderground v.1.15,2013-05-07 19:45:00,
2013-05-07 14:55:00,63.3,52.2,29.98,SW,224,5.0,11.0,67,0.00,,,0.00,Wunderground v.1.15,2013-05-07 19:55:00,
2013-05-07 15:05:00,61.5,53.1,29.98,WSW,248,4.0,6.0,74,0.00,,,0.00,Wunderground v.1.15,2013-05-07 20:05:00,
2013-05-07 15:15:00,60.1,53.9,29.98,SW,218,4.0,11.0,80,0.10,,,0.02,Wunderground v.1.15,2013-05-07 20:15:00,
2013-05-07 15:20:00,59.5,54.0,29.98,WSW,252,3.0,11.0,82,0.13,,,0.03,Wunderground v.1.15,2013-05-07 20:20:00,
2013-05-07 15:30:00,58.6,53.8,29.98,SW,229,3.0,3.0,84,0.10,,,0.04,Wunderground v.1.15,2013-05-07 20:30:00,
2013-05-07 15:40:00,58.2,53.7,29.98,SSW,203,1.0,11.0,85,0.07,,,0.05,Wunderground v.1.15,2013-05-07 20:40:00,
2013-05-07 15:45:00,57.9,54.1,29.98,SSW,211,1.0,11.0,87,0.06,,,0.06,Wunderground v.1.15,2013-05-07 20:45:00,
2013-05-07 15:55:00,57.8,54.3,29.98,SSW,210,0.0,11.0,88,0.08,,,0.07,Wunderground v.1.15,2013-05-07 20:55:00,
2013-05-07 16:05:00,57.8,54.0,29.97,ESE,119,0.0,11.0,87,0.06,,,0.08,Wunderground v.1.15,2013-05-07 21:05:00,
2013-05-07 16:15:00,57.7,54.5,29.97,ESE,120,1.0,11.0,89,0.05,,,0.09,Wunderground v.1.15,2013-05-07 21:15:00,
2013-05-07 16:20:00,57.8,54.9,29.97,East,89,0.0,11.0,90,0.05,,,0.09,Wunderground v.1.15,2013-05-07 21:20:00,
2013-05-07 16:30:00,57.8,54.9,29.97,SE,134,1.0,1.0,90,0.05,,,0.10,Wunderground v.1.15,2013-05-07 21:30:00,
2013-05-07 16:40:00,57.7,55.1,29.96,ESE,107,1.0,11.0,91,0.12,,,0.12,Wunderground v.1.15,2013-05-07 21:40:00,
2013-05-07 16:45:00,57.5,54.6,29.97,ESE,106,1.0,11.0,90,0.11,,,0.13,Wunderground v.1.15,2013-05-07 21:45:00,
2013-05-07 16:55:00,57.3,54.1,29.96,SE,138,1.0,11.0,89,0.04,,,0.14,Wunderground v.1.15,2013-05-07 21:55:00,
2013-05-07 17:05:00,57.3,54.4,29.95,ESE,115,0.0,11.0,90,0.04,,,0.14,Wunderground v.1.15,2013-05-07 22:05:00,
2013-05-07 17:15:00,57.4,54.5,29.95,East,98,1.0,11.0,90,0.00,,,0.14,Wunderground v.1.15,2013-05-07 22:15:00,
2013-05-07 17:20:00,57.4,54.2,29.94,East,90,1.0,11.0,89,0.00,,,0.14,Wunderground v.1.15,2013-05-07 22:20:00,
2013-05-07 17:30:00,57.4,53.9,29.94,East,79,1.0,1.0,88,0.00,,,0.14,Wunderground v.1.15,2013-05-07 22:30:00,
2013-05-07 17:35:00,57.6,54.1,29.94,East,88,0.0,11.0,88,0.00,,,0.14,Wunderground v.1.15,2013-05-07 22:35:00,
2013-05-07 17:45:00,58.2,54.7,29.94,East,98,0.0,11.0,88,0.00,,,0.14,Wunderground v.1.15,2013-05-07 22:45:00,
2013-05-07 17:55:00,58.8,54.3,29.94,ESE,107,1.0,11.0,85,0.00,,,0.14,Wunderground v.1.15,2013-05-07 22:55:00,
2013-05-07 18:00:00,59.0,54.2,29.94,East,101,1.0,1.0,84,0.00,,,0.14,Wunderground v.1.15,2013-05-07 23:00:00,
2013-05-07 18:10:00,59.5,53.7,29.93,East,86,2.0,3.0,81,0.00,,,0.14,Wunderground v.1.15,2013-05-07 23:10:00,
2013-05-07 18:15:00,59.8,54.0,29.93,SE,134,3.0,4.0,81,0.00,,,0.14,Wunderground v.1.15,2013-05-07 23:15:00,
2013-05-07 18:25:00,59.9,54.1,29.93,ESE,121,2.0,3.0,81,0.00,,,0.14,Wunderground v.1.15,2013-05-07 23:25:00,
2013-05-07 18:30:00,60.1,53.9,29.93,East,97,1.0,1.0,80,0.00,,,0.14,Wunderground v.1.15,2013-05-07 23:30:00,
2013-05-07 18:40:00,60.3,53.4,29.93,East,84,1.0,1.0,78,0.00,,,0.14,Wunderground v.1.15,2013-05-07 23:40:00,
2013-05-07 18:45:00,60.2,53.3,29.93,SE,137,2.0,2.0,78,0.00,,,0.14,Wunderground v.1.15,2013-05-07 23:45:00,
2013-05-07 18:55:00,59.9,53.4,29.92,East,93,1.0,2.0,79,0.00,,,0.14,Wunderground v.1.15,2013-05-07 23:55:00,
2013-05-07 19:05:00,59.3,53.8,29.92,ESE,103,1.0,4.0,82,0.00,,,0.14,Wunderground v.1.15,2013-05-08 00:05:00,
2013-05-07 19:15:00,58.8,54.3,29.91,East,92,1.0,4.0,85,0.13,,,0.16,Wunderground v.1.15,2013-05-08 00:15:00,
2013-05-07 19:25:00,58.2,54.7,29.91,East,91,0.0,4.0,88,0.11,,,0.18,Wunderground v.1.15,2013-05-08 00:25:00,
2013-05-07 19:30:00,58.1,54.6,29.90,East,93,0.0,4.0,88,0.07,,,0.18,Wunderground v.1.15,2013-05-08 00:30:00,
2013-05-07 19:40:00,58.2,55.0,29.90,East,83,0.0,4.0,89,0.00,,,0.18,Wunderground v.1.15,2013-05-08 00:40:00,
2013-05-07 19:50:00,58.5,55.0,29.90,ENE,72,0.0,4.0,88,0.00,,,0.18,Wunderground v.1.15,2013-05-08 00:50:00,
2013-05-07 19:55:00,58.8,54.9,29.90,East,85,0.0,4.0,87,0.00,,,0.18,Wunderground v.1.15,2013-05-08 00:55:00,
2013-05-07 20:05:00,58.9,54.7,29.90,East,83,1.0,4.0,86,0.00,,,0.18,Wunderground v.1.15,2013-05-08 01:05:00,
2013-05-07 20:15:00,58.7,54.2,29.91,ENE,70,1.0,4.0,85,0.00,,,0.18,Wunderground v.1.15,2013-05-08 01:15:00,
2013-05-07 20:25:00,58.6,54.1,29.91,East,82,0.0,4.0,85,0.00,,,0.18,Wunderground v.1.15,2013-05-08 01:25:00,
2013-05-07 20:30:00,58.4,53.9,29.91,SE,146,0.0,4.0,85,0.00,,,0.18,Wunderground v.1.15,2013-05-08 01:30:00,
2013-05-07 20:40:00,58.1,53.9,29.92,East,95,0.0,4.0,86,0.00,,,0.18,Wunderground v.1.15,2013-05-08 01:40:00,
2013-05-07 20:50:00,58.0,53.8,29.92,SE,127,0.0,4.0,86,0.00,,,0.18,Wunderground v.1.15,2013-05-08 01:50:00,
2013-05-07 20:55:00,58.0,53.8,29.92,ESE,107,0.0,4.0,86,0.00,,,0.18,Wunderground v.1.15,2013-05-08 01:55:00,
2013-05-07 21:05:00,57.8,53.6,29.93,ESE,121,0.0,4.0,86,0.00,,,0.18,Wunderground v.1.15,2013-05-08 02:05:00,
2013-05-07 21:15:00,57.8,53.6,29.93,ESE,113,0.0,4.0,86,0.00,,,0.18,Wunderground v.1.15,2013-05-08 02:15:00,
2013-05-07 21:25:00,57.7,53.5,29.93,ESE,104,0.0,4.0,86,0.00,,,0.18,Wunderground v.1.15,2013-05-08 02:25:00,
2013-05-07 21:30:00,57.7,53.5,29.93,East,92,0.0,4.0,86,0.00,,,0.18,Wunderground v.1.15,2013-05-08 02:30:00,
2013-05-07 21:40:00,57.5,53.3,29.93,ESE,106,0.0,4.0,86,0.00,,,0.18,Wunderground v.1.15,2013-05-08 02:40:00,
2013-05-07 21:45:00,57.6,53.4,29.93,SE,125,0.0,4.0,86,0.00,,,0.18,Wunderground v.1.15,2013-05-08 02:45:00,
2013-05-07 21:55:00,57.4,53.2,29.93,ESE,108,0.0,4.0,86,0.00,,,0.18,Wunderground v.1.15,2013-05-08 02:55:00,
2013-05-07 22:05:00,57.3,53.1,29.93,ESE,113,0.0,4.0,86,0.00,,,0.18,Wunderground v.1.15,2013-05-08 03:05:00,
2013-05-07 22:15:00,57.2,53.0,29.93,ESE,104,0.0,4.0,86,0.00,,,0.18,Wunderground v.1.15,2013-05-08 03:15:00,
2013-05-07 22:25:00,57.1,52.6,29.93,SE,136,0.0,4.0,85,0.00,,,0.18,Wunderground v.1.15,2013-05-08 03:25:00,
2013-05-07 22:30:00,57.1,53.0,29.93,East,86,0.0,4.0,86,0.00,,,0.18,Wunderground v.1.15,2013-05-08 03:30:00,
2013-05-07 22:40:00,56.8,52.7,29.93,East,93,0.0,4.0,86,0.00,,,0.18,Wunderground v.1.15,2013-05-08 03:40:00,
2013-05-07 22:45:00,56.8,52.7,29.93,East,93,0.0,4.0,86,0.00,,,0.18,Wunderground v.1.15,2013-05-08 03:45:00,
2013-05-07 22:55:00,56.6,52.8,29.93,East,94,0.0,4.0,87,0.00,,,0.18,Wunderground v.1.15,2013-05-08 03:55:00,
2013-05-07 23:05:00,56.9,52.8,29.92,ESE,115,0.0,4.0,86,0.00,,,0.18,Wunderground v.1.15,2013-05-08 04:05:00,
2013-05-07 23:15:00,57.0,52.9,29.91,East,99,1.0,2.0,86,0.00,,,0.18,Wunderground v.1.15,2013-05-08 04:15:00,
2013-05-07 23:20:00,57.0,52.9,29.92,SE,127,1.0,4.0,86,0.00,,,0.18,Wunderground v.1.15,2013-05-08 04:20:00,
2013-05-07 23:30:00,56.9,52.8,29.91,ESE,102,2.0,4.0,86,0.00,,,0.18,Wunderground v.1.15,2013-05-08 04:30:00,
2013-05-07 23:40:00,56.8,53.0,29.91,ENE,63,2.0,2.0,87,0.00,,,0.18,Wunderground v.1.15,2013-05-08 04:40:00,
2013-05-07 23:50:00,56.5,53.0,29.92,SE,134,2.0,5.0,88,0.00,,,0.18,Wunderground v.1.15,2013-05-08 04:50:00,